Regional Weather Roundup
Issued by NWS

Home | Current Version | Previous Version | Graphics & Text | Print | Product List | Glossary On
Versions: 1 2 3 4 5 6 7 8 9 10 11 12 13 14 15 16 17 18 19 20 21 22 23 24 25 26 27 28 29 30 31 32 33 34 35 36 37 38 39 40 41 42 43 44 45 46 47 48 49 50
000
ASUS43 KDTX 291701
RWRMI
MICHIGAN HOURLY REGIONAL WEATHER ROUNDUP
NATIONAL WEATHER SERVICE DETROIT/PONTIAC MI
100 PM EDT FRI AUG 29 2014

NOTE: "FAIR" INDICATES FEW OR NO CLOUDS BELOW 12,000 FEET WITH NO
SIGNIFICANT WEATHER AND/OR OBSTRUCTION TO VISIBILITY.

MIZ047>049-052>055-059>063-066>070-074>076-081>083-291800-
SOUTHEAST LOWER MICHIGAN

CITY           SKY/WX    TMP DP  RH WIND       PRES   REMARKS
ADRIAN         CLOUDY    71  59  65 SE8       30.12F
ALMA           PTSUNNY   69  56  62 S7        30.07F
ANN ARBOR      CLOUDY    70  54  56 S7        30.12S
BAD AXE        CLOUDY    70  60  70 S13       30.12S
CARO           PTSUNNY   74  58  58 S13       30.09F
DETROIT CITY   PTSUNNY   73  52  47 S12       30.13F
DETROIT        CLOUDY    71  54  54 SE9       30.13F
FLINT          PTSUNNY   75  57  53 S13       30.10F
GROSSE ILE     CLOUDY    72  59  64 SE6       30.12S
HILLSDALE      CLOUDY    73  59  60 S8        30.10F
HOWELL         PTSUNNY   69  55  60 SE9       30.11F

CITY           SKY/WX    TMP DP  RH WIND       PRES   REMARKS
JACKSON        CLOUDY    71  58  63 SE9       30.10F
LAMBERTVILLE   PTSUNNY   72  59  64 CALM      30.12S
LANSING        LGT RAIN  69  56  62 SE12      30.09F
LAPEER         FAIR      69  53  56 S10       30.12F
MASON          CLOUDY    69  58  68 SE10      30.10F
MONROE         CLOUDY    70  57  64 SE5       30.11S
MT. CLEMENS    PTSUNNY   71  54  56 SE10      30.12F
PONTIAC        CLOUDY    71  55  56 S10       30.12F
PORT HOPE        N/A     70  56  61 S9        30.10F
PORT HURON     PTSUNNY   72  55  56 S12       30.14S
TRI CITIES     PTSUNNY   74  59  59 S12       30.08F
TROY           CLOUDY    74  50  43 S8        30.14F
SAGINAW HB     CLOUDY    73  57  56 S12       30.08S
$$
MIZ043>046-050>051-056>058-064>065-071>073-077>080-291800-
SOUTHWEST LOWER MICHIGAN

CITY           SKY/WX    TMP DP  RH WIND       PRES   REMARKS
BATTLE CREEK   CLOUDY    69  59  70 SE10      30.08F
BENTON HARBOR  PTSUNNY   77  65  66 S9        30.01F
BIG RAPIDS     PTSUNNY   68  61  78 SE9G17    30.04F
COLDWATER      PTSUNNY   74  60  63 S8G17     30.08F
FREMONT        PTSUNNY   69  57  66 SE6       30.03S
HOLLAND        PTSUNNY   73  64  73 SE13      30.03F
GRAND RAPIDS   CLOUDY    71  63  75 SE12      30.05F
IONIA          FAIR      70  59  68 SE10G18   30.06F
KALAMAZOO      CLOUDY    71  60  68 S8        30.06F
LUDINGTON      PTSUNNY   74  66  75 SE9       29.99S
MARSHALL       CLOUDY    69  58  69 SE7       30.08F
MOUNT PLEASANT PTSUNNY   70  56  61 SE12      30.06F
MUSKEGON       TSTM      70  62  76 SE7       30.02S
SOUTH HAVEN    CLOUDY    76  66  71 S9        30.02F
$$
MIZ016>042-291800-
NORTHERN LOWER MICHIGAN

CITY           SKY/WX    TMP DP  RH WIND       PRES   REMARKS
ALPENA         RAIN      60  59  96 SE7       30.11S FOG
BEAVER ISLAND  RAIN      62  60  94 SE9       29.98F
CADILLAC       PTSUNNY   70  62  76 S13       30.03F
CHARLEVOIX     LGT RAIN  62  61  99 SE7       30.02F
FRANKFORT      PTSUNNY   72  63  73 SE9       29.97F
GAYLORD        CLOUDY    59  57  93 S14G22    30.05S
GRAYLING       LGT RAIN  60  60 100 SE6       30.06F
HARBOR SPRINGS RAIN      61  59  92 SE3       30.02F
HOUGHTON LAKE  CLOUDY    63  58  83 S8        30.07F
MANISTEE       MOSUNNY   73  63  68 S7G16     29.99F
OSCODA         CLOUDY    64  58  81 SE5       30.10S
PELLSTON       LGT RAIN  61  59  93 SE10      30.02F FOG
ROGERS CITY    LGT RAIN  59  59 100 SE9       30.09
TRAVERSE CITY  PTSUNNY   68  61  78 S3        29.99F
$$
MIZ007>008-015-291800-
EASTERN UPPER MICHIGAN

CITY           SKY/WX    TMP DP  RH WIND       PRES   REMARKS
KINROSS        CLOUDY    61  61 100 SE14      30.04F
MACKINAC ISLAN LGT RAIN  59  59  99 SE8G21    30.01F
NEWBERRY       CLOUDY    59  58  96 SE9G21    29.98F
S. S. MARIE    LGT RAIN  60  57  89 SE10      30.04F
$$
MIZ004>006-011>014-085-291800-
CENTRAL UPPER MICHIGAN

CITY           SKY/WX    TMP DP  RH WIND       PRES   REMARKS
MANISTIQUE     CLOUDY    62  61  98 S10       29.96F
ESCANABA       CLOUDY    64  61  88 S10       29.92F
MENOMINEE      CLOUDY    68  64  88 S7        29.90F
SAWYER-GWINN   RAIN      61  59  94 S13       29.93F
$$
MIZ001>003-009>011-084-291800-
WESTERN UPPER MICHIGAN

CITY           SKY/WX    TMP DP  RH WIND       PRES   REMARKS
IRON MOUNTAIN  CLOUDY    62  60  93 SE7       29.92F FOG
HOUGHTON       CLOUDY    61  59  93 SE8       29.87F
COPPER HARBOR    N/A     61  58  90 S10G17    29.87F
$$

ABBREVIATIONS USED IN REMARKS
   TC - TEMPERATURE IN CELSIUS
  WCI - WIND CHILL INDEX
   HX - HEAT INDEX
  VSB - VISIBILITY




USA.gov is the U.S. government's official web portal to all federal, state and local government web resources and services.